STARLINK-11113, 59947

Orbit data source: Space-Track

STARLINK-11113, 59947 is a payload satellite owned by SpaceX/Seattle (US) in LEO that was launched on Wed, 05 Jun 2024 UTC via an FALCON 9 launch vehicle from the Air Force Eastern Test Range (AFETR). Payload-class satellites include a variety of spacecraft equipped with specific instruments for various scientific and technological missions. These include communications satellites like Starlink; space stations such as the ISS; scientific satellites like the Hubble; Earth observation satellites from companies like Planet Labs, Umbra, and HawkEye 360; GPS; miniature CubeSats for education and research; and military/defense satellites.

Loading next visibility...
Identifier
59947, 2024-107C
Orbit
LEO
Country
Flag of USUS
Related business
Manufacturer
SpaceX/Seattle
Mission
Operational spacecraft
Bus & Motor
STARLINK V2MD, Unknown motor
Mass
960 kg wet, ~910 kg dry
Launch date (UTC)
2024-06-05 (1 year ago)
Launch vehicle
FALCON 9
Launch site
Air Force Eastern Test Range (AFETR)
Object type
Payload
Rocket body
Debris
Shape & HBR
Unknown
Radar Cross Section
Large (>1 m²)

Expand to show TLE details & history
Last TLE update: 1 day ago

TLE from 1 day ago
0 STARLINK-11113
1 59947U 24107C   25260.52613456 -.00000258  00000-0  27292-5 0  9998
2 59947  53.1594  24.5245 0000934  59.1231 300.9878 15.69714924 74950
Epoch: 2025-09-17T12:37Z
TLE epoch observation values (Epoch: 2025-09-17T12:37:38.025Z)
Latitude
-0.0001°
Longitude
-161.58483°
Altitude
360.304 km
Speed
7.695 km/s
True Right ascension
01h 38m 05s
True Declination
0° 00' 00"
Sunlit
Object was in full shadow at epoch
Visualization orbit readout
Latitude
Unknown
Longitude
Unknown
Altitude
Unknown
Speed
Unknown
Apparent Right ascension
Unknown
Apparent Declination
Unknown
Sunlit
N/A
Visualization observer readout
Local Sidereal Time
13:52:14
Azimuth
Unknown
Elevation
Unknown
Doppler factor
Unknown
Orbital elements
Apogee altitude
360.603 km
Perigee altitude
359.344 km
Semi-major axis
6,738.11 km
Eccentricity
0.00009
Inclination
53.1594°
RAAN
24.5245°
Arg. of periapsis
59.1231°
True anomaly
300.97862°
Mean anomaly
300.9878°
Eccentric anomaly
300.98321°
Mean motion
3.92406 °/min
Orbital period
91.74 mins
BSTAR
0.0000027292
Loading maneuver chart data...
Computing Atmospheric mass density...
Loading historical data...
Loading historical data...
Loading historical data...
Loading historical data...
Loading historical data...
Loading historical data...
Loading historical data...

Documentation

Showing up to 5 results
|